TimeMST,TemperatureF,Dew PointF,Humidity,Sea Level PressureIn,VisibilityMPH,Wind Direction,Wind SpeedMPH,Gust SpeedMPH,PrecipitationIn,Events,Conditions,WindDirDegrees,DateUTC
12:15 AM,35.4,17.4,48,30.16,10.0,NW,4.6,-,N/A,,Clear,320,2012-11-22 07:15:00
12:35 AM,34.5,16.9,49,30.16,10.0,NW,5.8,-,N/A,,Clear,320,2012-11-22 07:35:00
12:55 AM,35.2,17.6,49,30.16,10.0,NW,8.1,-,N/A,,Clear,310,2012-11-22 07:55:00
1:15 AM,35.4,17.4,48,30.16,10.0,NW,5.8,-,N/A,,Clear,320,2012-11-22 08:15:00
1:35 AM,34.5,17.4,50,30.16,10.0,NW,4.6,-,N/A,,Clear,320,2012-11-22 08:35:00
1:55 AM,35.2,17.4,48,30.16,10.0,WNW,4.6,-,N/A,,Clear,300,2012-11-22 08:55:00
2:15 AM,32.9,16.9,52,30.17,10.0,NNE,4.6,-,N/A,,Clear,30,2012-11-22 09:15:00
2:35 AM,32.4,16.7,53,30.16,10.0,NW,4.6,-,N/A,,Clear,320,2012-11-22 09:35:00
2:55 AM,31.8,16.5,53,30.17,10.0,NNE,3.5,-,N/A,,Clear,20,2012-11-22 09:55:00
3:15 AM,32.0,16.9,54,30.17,10.0,Calm,Calm,-,N/A,,Clear,0,2012-11-22 10:15:00
3:35 AM,31.5,17.1,55,30.17,10.0,NW,3.5,-,N/A,,Clear,320,2012-11-22 10:35:00
3:55 AM,30.7,17.1,57,30.17,10.0,NW,3.5,-,N/A,,Clear,310,2012-11-22 10:55:00
4:15 AM,30.0,16.7,58,30.17,10.0,NW,5.8,-,N/A,,Clear,310,2012-11-22 11:15:00
4:35 AM,31.8,16.7,54,30.17,10.0,NNW,3.5,-,N/A,,Clear,330,2012-11-22 11:35:00
4:55 AM,29.8,16.0,56,30.17,10.0,North,4.6,-,N/A,,Clear,350,2012-11-22 11:55:00
5:15 AM,29.5,16.2,58,30.17,10.0,NNW,4.6,-,N/A,,Clear,340,2012-11-22 12:15:00
5:35 AM,29.5,15.8,57,30.17,10.0,North,3.5,-,N/A,,Clear,350,2012-11-22 12:35:00
5:55 AM,30.2,17.2,59,30.18,10.0,NNW,4.6,-,N/A,,Clear,330,2012-11-22 12:55:00
6:15 AM,26.6,15.3,62,30.19,10.0,NNW,6.9,-,N/A,,Clear,330,2012-11-22 13:15:00
6:35 AM,28.2,16.7,62,30.19,10.0,North,4.6,-,N/A,,Clear,350,2012-11-22 13:35:00
6:55 AM,27.1,16.5,64,30.20,10.0,Calm,Calm,-,N/A,,Clear,0,2012-11-22 13:55:00
7:15 AM,28.0,16.9,63,30.21,10.0,Calm,Calm,-,N/A,,Clear,0,2012-11-22 14:15:00
7:35 AM,32.0,17.4,55,30.22,10.0,Calm,Calm,-,N/A,,Clear,0,2012-11-22 14:35:00
7:55 AM,35.2,18.1,50,30.23,10.0,Calm,Calm,-,N/A,,Clear,0,2012-11-22 14:55:00
8:15 AM,39.2,21.6,49,30.24,10.0,NE,4.6,-,N/A,,Clear,40,2012-11-22 15:15:00
8:35 AM,41.2,21.6,46,30.25,10.0,NE,4.6,-,N/A,,Clear,50,2012-11-22 15:35:00
8:55 AM,43.5,21.6,42,30.25,10.0,North,3.5,-,N/A,,Clear,360,2012-11-22 15:55:00
9:15 AM,45.3,21.6,39,30.26,10.0,Calm,Calm,-,N/A,,Clear,0,2012-11-22 16:15:00
9:35 AM,48.2,22.1,36,30.26,10.0,Calm,Calm,-,N/A,,Clear,0,2012-11-22 16:35:00
9:55 AM,50.4,22.8,34,30.26,10.0,Calm,Calm,-,N/A,,Clear,0,2012-11-22 16:55:00
10:15 AM,52.2,23.5,33,30.26,10.0,Calm,Calm,-,N/A,,Clear,0,2012-11-22 17:15:00
10:35 AM,53.8,24.8,33,30.25,10.0,Calm,Calm,-,N/A,,Clear,0,2012-11-22 17:35:00
10:55 AM,55.9,25.3,31,30.25,10.0,North,3.5,-,N/A,,Clear,10,2012-11-22 17:55:00
11:15 AM,58.1,25.9,29,30.24,10.0,Calm,Calm,-,N/A,,Clear,0,2012-11-22 18:15:00
11:35 AM,58.6,25.3,28,30.23,10.0,ESE,4.6,-,N/A,,Clear,110,2012-11-22 18:35:00
11:55 AM,58.6,25.7,28,30.23,10.0,ENE,4.6,-,N/A,,Clear,60,2012-11-22 18:55:00
12:15 PM,59.9,26.2,28,30.22,10.0,East,5.8,-,N/A,,Clear,100,2012-11-22 19:15:00
12:35 PM,59.7,26.4,28,30.21,10.0,NE,4.6,-,N/A,,Clear,40,2012-11-22 19:35:00
12:55 PM,62.1,27.1,27,30.20,10.0,NNE,3.5,-,N/A,,Clear,20,2012-11-22 19:55:00
1:15 PM,62.6,26.6,26,30.19,10.0,ENE,6.9,-,N/A,,Clear,70,2012-11-22 20:15:00
1:35 PM,63.5,26.8,25,30.19,10.0,NE,6.9,-,N/A,,Clear,50,2012-11-22 20:35:00
1:55 PM,63.1,26.8,25,30.19,10.0,NE,5.8,-,N/A,,Clear,50,2012-11-22 20:55:00
2:15 PM,62.6,26.2,25,30.19,10.0,NNE,3.5,-,N/A,,Clear,30,2012-11-22 21:15:00
2:35 PM,63.5,26.6,25,30.18,10.0,NE,5.8,-,N/A,,Clear,40,2012-11-22 21:35:00
2:55 PM,63.9,26.1,24,30.19,10.0,NE,3.5,-,N/A,,Clear,40,2012-11-22 21:55:00
3:15 PM,64.6,26.1,23,30.19,10.0,ENE,5.8,-,N/A,,Clear,70,2012-11-22 22:15:00
3:35 PM,64.2,25.3,23,30.19,10.0,NE,5.8,-,N/A,,Clear,40,2012-11-22 22:35:00
3:55 PM,63.9,24.8,23,30.19,10.0,NE,5.8,-,N/A,,Clear,50,2012-11-22 22:55:00
4:15 PM,63.3,24.8,23,30.20,10.0,NE,5.8,-,N/A,,Clear,40,2012-11-22 23:15:00
4:35 PM,61.5,24.4,24,30.21,10.0,NNE,4.6,-,N/A,,Clear,30,2012-11-22 23:35:00
4:55 PM,60.1,24.3,25,30.21,10.0,Calm,Calm,-,N/A,,Clear,0,2012-11-22 23:55:00
5:35 PM,58.3,24.4,27,30.22,10.0,NE,3.5,-,N/A,,Clear,50,2012-11-23 00:35:00
5:55 PM,57.4,24.4,28,30.23,10.0,NNE,4.6,-,N/A,,Clear,30,2012-11-23 00:55:00
6:15 PM,50.0,21.7,33,30.23,10.0,NNE,5.8,-,N/A,,Clear,20,2012-11-23 01:15:00
6:55 PM,47.5,20.1,34,30.25,10.0,NNW,4.6,-,N/A,,Clear,340,2012-11-23 01:55:00
7:15 PM,46.4,20.1,35,30.25,10.0,NNW,5.8,-,N/A,,Clear,340,2012-11-23 02:15:00
7:35 PM,44.8,20.3,38,30.26,10.0,NW,5.8,-,N/A,,Clear,310,2012-11-23 02:35:00
7:55 PM,45.1,20.3,37,30.27,10.0,WNW,5.8,-,N/A,,Clear,290,2012-11-23 02:55:00
8:15 PM,43.0,19.9,40,30.28,10.0,Calm,Calm,-,N/A,,Clear,0,2012-11-23 03:15:00
8:35 PM,43.0,19.4,39,30.28,10.0,North,6.9,-,N/A,,Clear,10,2012-11-23 03:35:00
8:55 PM,43.0,20.5,41,30.29,10.0,NW,6.9,-,N/A,,Clear,320,2012-11-23 03:55:00
9:15 PM,42.3,19.6,40,30.29,10.0,NNW,5.8,-,N/A,,Clear,340,2012-11-23 04:15:00
9:35 PM,43.2,18.9,38,30.30,10.0,North,10.4,-,N/A,,Clear,350,2012-11-23 04:35:00
9:55 PM,42.3,17.8,37,30.31,10.0,NNW,10.4,-,N/A,,Clear,330,2012-11-23 04:55:00
10:15 PM,40.3,17.1,39,30.32,10.0,North,8.1,-,N/A,,Clear,360,2012-11-23 05:15:00
10:55 PM,41.4,18.0,39,30.33,10.0,North,3.5,-,N/A,,Clear,360,2012-11-23 05:55:00
11:15 PM,40.8,17.1,38,30.33,10.0,NW,8.1,-,N/A,,Clear,310,2012-11-23 06:15:00
11:35 PM,39.2,16.9,40,30.35,10.0,NW,8.1,-,N/A,,Clear,310,2012-11-23 06:35:00
11:55 PM,38.3,17.2,43,30.35,10.0,NW,6.9,-,N/A,,Clear,310,2012-11-23 06:55:00